Home   Weather   South Melbourne beach   Past weeks
Flag for Australia

Past Weather in South Melbourne beach, Victoria, Australia — Yesterday and Last 2 Weeks

Now
50 °F

Passing clouds.


Feels Like: 45 °F
Forecast: 56 / 48 °F
Wind: 13 mph from North

Location: Melbourne Airport

Current Time: Jul 23, 2019 at 7:10:19 am

Latest Report: Jul 23, 2019 at 6:00 am


Visibility: N/A

Pressure: 29.77 "Hg

Humidity: 76%

Dew Point: 43 °F

Location of South Melbourne beachLocation

Past Weather in South Melbourne beach — Graph

°F

South Melbourne beach Temperature Yesterday

Maximum temperature yesterday: 59 °F (at 2:36 pm)
Minimum temperature yesterday: 45 °F (at 1:30 am)
Average temperature yesterday: 51 °F

High & Low Weather Summary for the Past Weeks

 TemperatureHumidityPressure
High61 °F (Jul 20, 2:05 pm)100% (Jul 16, 1:00 am)30.27 "Hg (Jul 16, 1:00 am)
Low41 °F (Jul 9, 4:30 am)41% (Jul 13, 3:09 pm)29.50 "Hg (Jul 10, 9:02 pm)
Average51 °F73%29.97 "Hg
* Reported Jul 8 6:00 am — Jul 23 6:00 am, South Melbourne beach. Weather by CustomWeather, © 2019

Note: Actual official high and low records may vary slightly from our data, if they occured in-between our weather recording intervals... More about our weather records

Advertising

South Melbourne beach Weather History for the Previous 24 Hours

Scroll right to see more
 ConditionsComfort  
Time TempWeatherWind HumidityBarometerVisibility
6:00 am
Tue, Jul 23
50 °FPassing clouds.13 mph76%29.77 "HgN/A
5:30 am48 °FClear.17 mph76%29.77 "Hg10 mi
5:00 am48 °FClear.20 mph76%29.77 "Hg10 mi
4:30 am50 °FClear.22 mph71%29.74 "Hg10 mi
4:00 am50 °FScattered showers. Clear.21 mph71%29.74 "HgN/A
3:30 am52 °FSprinkles. Clear.17 mph58%29.77 "HgN/A
3:00 am52 °FClear.13 mph54%29.77 "Hg10 mi
2:30 am52 °FClear.16 mph54%29.77 "Hg10 mi
2:00 am52 °FClear.21 mph54%29.74 "Hg10 mi
1:30 am52 °FClear.21 mph50%29.74 "Hg10 mi
1:00 am52 °FClear.24 mph54%29.74 "Hg10 mi
12:30 am50 °FClear.26 mph62%29.74 "Hg10 mi
12:00 am52 °FClear.29 mph58%29.77 "Hg10 mi
11:30 pm
Mon, Jul 22
52 °FClear.26 mph58%29.77 "Hg10 mi
11:00 pm52 °FClear.28 mph58%29.80 "Hg10 mi
10:30 pm52 °FClear.28 mph58%29.80 "Hg10 mi
10:02 pm54 °FClear.29 mph54%29.80 "Hg10 mi
9:36 pm54 °FClear.29 mph54%29.80 "Hg10 mi
9:00 pm54 °FClear.29 mph54%29.80 "Hg10 mi
8:30 pm52 °FClear.25 mph62%29.83 "Hg10 mi
8:00 pm54 °FPassing clouds.25 mph63%29.83 "HgN/A
7:30 pm54 °FPassing clouds.24 mph63%29.83 "HgN/A
7:00 pm54 °FPassing clouds.30 mph63%29.80 "HgN/A
6:36 pm54 °FPassing clouds.30 mph63%29.80 "HgN/A
6:00 pm55 °FPassing clouds.30 mph59%29.80 "HgN/A
5:30 pm55 °FPassing clouds.28 mph59%29.77 "HgN/A
5:19 pm55 °FPassing clouds.28 mph59%29.77 "HgN/A
5:00 pm55 °FPassing clouds.30 mph59%29.77 "HgN/A
4:34 pm57 °FPassing clouds.28 mph55%29.77 "HgN/A
4:23 pm57 °FPassing clouds.25 mph55%29.77 "HgN/A
4:00 pm57 °FPassing clouds.28 mph55%29.77 "HgN/A
3:30 pm59 °FPassing clouds.25 mph51%29.80 "HgN/A
3:00 pm59 °FPassing clouds.26 mph51%29.83 "HgN/A
2:36 pm59 °FPassing clouds.25 mph48%29.80 "HgN/A
2:00 pm57 °FPassing clouds.21 mph59%29.83 "HgN/A
1:30 pm55 °FPassing clouds.25 mph59%29.83 "HgN/A
1:00 pm55 °FPassing clouds.25 mph59%29.83 "HgN/A
12:30 pm55 °FPassing clouds.21 mph55%29.86 "HgN/A
12:21 pm55 °FPassing clouds.21 mph55%29.86 "HgN/A
12:00 pm55 °FPassing clouds.24 mph55%29.86 "HgN/A
11:00 am54 °FSunny.22 mph58%29.92 "Hg10 mi
10:00 am50 °FSunny.24 mph71%29.92 "Hg10 mi
9:50 am50 °FSunny.24 mph71%29.92 "Hg10 mi
9:30 am48 °FSunny.23 mph76%29.95 "Hg10 mi
9:00 am48 °FSunny.26 mph71%29.95 "Hg10 mi
8:30 am46 °FSunny.26 mph82%29.92 "Hg10 mi
8:00 am45 °FSunny.23 mph81%29.92 "Hg10 mi
7:30 am45 °FSunny.22 mph81%29.92 "Hg10 mi
7:00 am45 °FClear.21 mph81%29.92 "Hg10 mi
Weather by CustomWeather, © 2019

See weather overview